Weather in Balabash-Baishevo

Russia / Chuvash Republic     55°04′08″N   47°15′45″E
temp.,
°C
wind,
m/s
gust,
m/s
humid.,
%
clouds,
%
prec.,
mm/h
press.,
hPa
HPBL,
m
18 may, tue
tue1800:00+18ene2271100 0.0 101621
03:00+15s367913 0.0 1017115
06:00+18ene25755 0.0 1017174
09:00+24ese35535 0.0 1017581
12:00+28ese46355 0.0 10161546
15:00+29ese44295 0.0 10162063
18:00+25e48565 0.0 1016311
21:00+20e412775 0.0 1016290
19 may, wed
wed1900:00+18e412775 0.0 1016304
03:00+16e412775 0.0 1016289
06:00+18ese412714 0.0 1016356
09:00+23ese69534 0.0 1016694
12:00+26ese68435 0.0 10151180
15:00+26ese68400 0.0 10151413
18:00+24ese510490 0.0 1015653
21:00+20ese514620 0.0 1015462
20 may, thu
thu2000:00+18se515670 0.0 1015478
03:00+17se515720 0.0 1016541
06:00+17se513690 0.0 1016466
09:00+21se710550 0.0 1015869
12:00+24se711470 0.0 10151785
15:00+25se712455 0.0 10142300
18:00+16sw698585 0.5 1015380
21:00+14sse31093100 0.9 1015342
21 may, fri
fri2100:00+14sse399155 0.0 1016439
03:00+13sse3797100 0.0 1016202
06:00+15s4988100 0.0 1017398
09:00+20ssw58585 0.0 10171164
12:00+22sw574792 0.0 10172154
15:00+22sw474840 0.1 10181754
18:00+20wsw3762100 0.0 1018641
21:00+15sw2784100 0.1 1020142
22 may, sat
sat2200:00+14sw299269 0.1 1020200
03:00+12wsw23965 0.1 102247
06:00+15sw128487 0.0 1022184
09:00+21s35585 0.0 1022954
12:00+21w2568100 0.3 1022538
15:00+22sse0459100 0.5 1021647
18:00+22sse3861100 0.0 1020339
21:00+20s4126593 0.0 1020364